October 25, 2014
Temp
 
65.4 °F
 
Dew Pt.
 
52.0 °F
 
Humidity
 
62%
 
Pressure
 
1015.7 hPa 
  rising slowly
Wind
 
0.0 mph 
    N
Rain
 
0.00 in 
  0.00 in/hr
UV index
 
0.0  
 
Solar rad.
 
0 W/m²
 
Tonight

Mostly Cloudy
Mostly
Cloudy
Sunday

Mostly Sunny
Mostly
Sunny
Lo 56 °F Hi 77 °F
Statistics - 10/25/2014
Max Temp 84.8 °F  3:35 pm
Min Temp 62.6 °F  4:20 am
Max Dew Pt 55.8 °F  6:30 pm
Min Dew Pt 45.8 °F  4:15 am
Max Pressure 1017.1 hPa  10:50 am
Min Pressure 1014.1 hPa  3:50 am
Max Wind 11 mph  3:45 pm
Max UV 4.4   12:25 pm
Max Solar 872 W/m²  1:50 pm
Max Rainfall Rate —   —
Total Precipitation —   
Current Temp 65.4 °F  9:20 pm
Temp 24hr ago 72.3 °F  9:20 pm
Difference -6.9 °F  
Temp Rate -1.5 °F/hr  
Pressure Rate +0.2 hPa/hr  
time temp dew pt pressure uv solar wind wind speed rainfall rate
00:00 66.8 °F 47.6 °F 1015.8 hPa  Calm    
00:05 66.7 °F 47.5 °F 1015.8 hPa  Calm    
00:10 66.6 °F 47.4 °F 1015.8 hPa  Calm    
00:15 66.5 °F 47.3 °F 1015.9 hPa  Calm    
00:20 66.4 °F 47.2 °F 1015.9 hPa  Calm    
00:25 66.3 °F 47.1 °F 1015.9 hPa  Calm    
00:30 66.3 °F 47.1 °F 1016.0 hPa  Calm    
00:35 66.1 °F 47.4 °F 1015.9 hPa  Calm    
00:40 66.0 °F 47.3 °F 1015.9 hPa  Calm    
00:45 65.8 °F 47.2 °F 1015.8 hPa  Calm    
00:50 65.7 °F 47.6 °F 1015.8 hPa  Calm    
00:55 65.5 °F 47.4 °F 1015.8 hPa  Calm    
01:00 65.4 °F 47.8 °F 1015.8 hPa  Calm    
01:05 65.4 °F 47.8 °F 1015.8 hPa  Calm    
01:10 65.4 °F 49.3 °F 1015.7 hPa  Calm    
01:15 65.3 °F 48.7 °F 1015.7 hPa  Calm    
01:20 65.2 °F 48.6 °F 1015.7 hPa  Calm    
01:25 65.1 °F 48.0 °F 1015.7 hPa  Calm    
01:30 65.0 °F 47.9 °F 1015.8 hPa  Calm    
01:35 65.0 °F 47.9 °F 1015.7 hPa  Calm    
01:40 65.0 °F 47.9 °F 1015.8 hPa  W 2 mph   
01:45 64.9 °F 47.9 °F 1015.8 hPa  SSE 1 mph   
01:50 64.8 °F 47.8 °F 1015.7 hPa  E 2 mph   
01:55 64.7 °F 47.7 °F 1015.8 hPa  E 2 mph   
02:00 64.6 °F 47.1 °F 1016.0 hPa  W 1 mph   
02:05 64.5 °F 47.0 °F 1015.9 hPa  Calm    
02:10 64.3 °F 47.3 °F 1015.9 hPa  Calm    
02:15 64.2 °F 47.2 °F 1016.1 hPa  Calm    
02:20 64.1 °F 47.1 °F 1015.9 hPa  NE 2 mph   
02:25 64.1 °F 47.1 °F 1015.8 hPa  NE 1 mph   
02:30 64.1 °F 47.6 °F 1015.6 hPa  ENE 2 mph   
02:35 64.0 °F 48.0 °F 1015.6 hPa  ENE 2 mph   
02:40 64.0 °F 48.0 °F 1015.5 hPa  Calm    
02:45 63.9 °F 47.9 °F 1015.5 hPa  Calm    
02:50 63.8 °F 47.8 °F 1015.3 hPa  ENE 2 mph   
02:55 63.7 °F 47.7 °F 1015.3 hPa  ENE 1 mph   
03:00 63.6 °F 47.6 °F 1015.2 hPa  ENE 3 mph   
03:05 63.5 °F 47.5 °F 1015.2 hPa  ENE 1 mph   
03:10 63.5 °F 47.5 °F 1014.9 hPa  E 5 mph   
03:15 63.4 °F 47.4 °F 1014.9 hPa  E 5 mph   
03:20 63.4 °F 46.9 °F 1014.7 hPa  E 7 mph   
03:25 63.3 °F 47.3 °F 1014.8 hPa  E 2 mph   
03:30 63.3 °F 47.3 °F 1014.6 hPa  E 3 mph   
03:35 63.2 °F 46.8 °F 1014.4 hPa  Calm    
03:40 63.1 °F 46.2 °F 1014.4 hPa  Calm    
03:45 63.1 °F 46.2 °F 1014.2 hPa  ENE 2 mph   
03:50 63.0 °F 46.1 °F 1014.1 hPa  ENE 2 mph   
03:55 62.9 °F 46.0 °F 1014.2 hPa  WSW 2 mph   
04:00 62.8 °F 45.9 °F 1014.2 hPa  E 2 mph   
04:05 62.7 °F 45.8 °F 1014.2 hPa  E 2 mph   
04:10 62.7 °F 45.8 °F 1014.3 hPa  W 3 mph   
04:15 62.7 °F 45.8 °F 1014.3 hPa  W 3 mph   
04:20 62.7 °F 47.2 °F 1014.7 hPa  WSW 6 mph   
04:25 62.9 °F 47.9 °F 1014.9 hPa  E 2 mph   
04:30 63.0 °F 48.0 °F 1015.0 hPa  WSW 6 mph   
04:35 63.2 °F 49.1 °F 1015.1 hPa  W 6 mph   
04:40 63.2 °F 49.5 °F 1015.1 hPa  NE 4 mph   
04:45 63.2 °F 49.5 °F 1015.1 hPa  ENE 4 mph   
04:50 63.2 °F 49.5 °F 1014.8 hPa  ENE 7 mph   
04:55 63.3 °F 49.2 °F 1014.8 hPa  E 10 mph   
05:00 63.4 °F 49.7 °F 1014.8 hPa  WSW 8 mph   
05:05 63.5 °F 50.2 °F 1014.8 hPa  ESE 2 mph   
05:10 63.6 °F 50.3 °F 1014.7 hPa  ENE 2 mph   
05:15 63.6 °F 49.9 °F 1014.7 hPa  ENE 2 mph   
05:20 63.6 °F 49.9 °F 1014.9 hPa  WNW 1 mph   
05:25 63.6 °F 49.9 °F 1014.8 hPa  WNW 1 mph   
05:30 63.6 °F 49.5 °F 1014.9 hPa  WNW 1 mph   
05:35 63.7 °F 49.5 °F 1014.8 hPa  WNW 1 mph   
05:40 63.8 °F 49.6 °F 1014.7 hPa  ENE 2 mph   
05:45 63.8 °F 49.2 °F 1014.8 hPa  ENE 1 mph   
05:50 63.8 °F 49.2 °F 1014.9 hPa  WSW 1 mph   
05:55 63.9 °F 49.3 °F 1015.0 hPa  WSW 2 mph   
06:00 64.0 °F 48.9 °F 1014.9 hPa  WSW 2 mph   
06:05 64.1 °F 49.0 °F 1014.9 hPa  WSW 1 mph   
06:10 64.2 °F 49.1 °F 1014.8 hPa  WSW 1 mph   
06:15 64.4 °F 49.3 °F 1014.9 hPa  NE 1 mph   
06:20 64.4 °F 49.3 °F 1015.0 hPa  NW 1 mph   
06:25 64.5 °F 48.9 °F 1014.9 hPa  SSE 1 mph   
06:30 64.6 °F 49.0 °F 1015.0 hPa  WSW 1 mph   
06:35 64.6 °F 49.0 °F 1015.0 hPa  WSW 1 mph   
06:40 64.7 °F 49.1 °F 1015.0 hPa  WSW 2 mph   
06:45 64.7 °F 49.1 °F 1015.0 hPa  E 2 mph   
06:50 64.7 °F 49.1 °F 1015.1 hPa  WSW 3 mph   
06:55 64.7 °F 49.1 °F 1015.1 hPa  Calm    
07:00 64.8 °F 49.2 °F 1015.2 hPa  Calm    
07:05 64.8 °F 49.2 °F 1015.2 hPa  Calm    
07:10 64.9 °F 50.2 °F 1015.5 hPa  WSW 2 mph   
07:15 64.9 °F 50.2 °F 1015.6 hPa 5 W/m²  W 1 mph   
07:20 64.9 °F 50.7 °F 1015.6 hPa 8 W/m²  Calm    
07:25 64.9 °F 50.7 °F 1015.6 hPa 10 W/m²  Calm    
07:30 64.9 °F 50.7 °F 1015.6 hPa 9 W/m²  Calm    
07:35 64.9 °F 50.7 °F 1015.7 hPa 11 W/m²  Calm    
07:40 64.9 °F 50.7 °F 1015.8 hPa 15 W/m²  Calm    
07:45 64.9 °F 50.7 °F 1015.9 hPa 19 W/m²  Calm    
07:50 64.9 °F 51.1 °F 1016.0 hPa 24 W/m²  Calm    
07:55 64.9 °F 51.1 °F 1016.0 hPa 35 W/m²  Calm    
08:00 64.9 °F 51.6 °F 1016.1 hPa 40 W/m²  Calm    
08:05 65.0 °F 51.7 °F 1016.2 hPa 42 W/m²  Calm    
08:10 65.1 °F 52.2 °F 1016.2 hPa 47 W/m²  Calm    
08:15 65.2 °F 52.3 °F 1016.3 hPa 47 W/m²  Calm    
08:20 65.3 °F 52.8 °F 1016.4 hPa 53 W/m²  Calm    
08:25 65.3 °F 52.8 °F 1016.4 hPa 61 W/m²  Calm    
08:30 65.4 °F 52.9 °F 1016.4 hPa 62 W/m²  Calm    
08:35 65.4 °F 52.9 °F 1016.5 hPa 65 W/m²  Calm    
08:40 65.4 °F 52.9 °F 1016.5 hPa 84 W/m²  Calm    
08:45 65.5 °F 53.0 °F 1016.5 hPa 102 W/m²  Calm    
08:50 65.6 °F 53.1 °F 1016.5 hPa 128 W/m²  Calm    
08:55 65.7 °F 53.6 °F 1016.7 hPa 247 W/m²  Calm    
09:00 65.9 °F 53.4 °F 1016.7 hPa 128 W/m²  Calm    
09:05 66.1 °F 53.6 °F 1016.7 hPa 122 W/m²  Calm    
09:10 66.3 °F 53.7 °F 1016.8 hPa 124 W/m²  Calm    
09:15 66.7 °F 54.1 °F 1016.8 hPa 160 W/m²  Calm    
09:20 67.1 °F 54.1 °F 1016.9 hPa 199 W/m²  Calm    
09:25 67.5 °F 54.0 °F 1016.9 hPa 176 W/m²  Calm    
09:30 67.9 °F 54.4 °F 1017.0 hPa 0.5 168 W/m²  S 1 mph   
09:35 68.4 °F 54.4 °F 1017.0 hPa 0.6 462 W/m²  S 1 mph   
09:40 68.9 °F 54.9 °F 1016.9 hPa 0.7 443 W/m²  WSW 1 mph   
09:45 69.5 °F 54.5 °F 1016.9 hPa 0.9 442 W/m²  WSW 2 mph   
09:50 70.1 °F 54.6 °F 1016.9 hPa 1.0 463 W/m²  ESE 2 mph   
09:55 71.0 °F 54.5 °F 1016.9 hPa 1.1 466 W/m²  ESE 2 mph   
10:00 71.8 °F 54.8 °F 1017.0 hPa 1.2 484 W/m²  SSW 2 mph   
10:05 72.5 °F 53.9 °F 1016.9 hPa 1.3 492 W/m²  WSW 2 mph   
10:10 73.1 °F 53.9 °F 1016.7 hPa 1.5 497 W/m²  ENE 3 mph   
10:15 73.9 °F 53.5 °F 1016.7 hPa 1.6 512 W/m²  ESE 3 mph   
10:20 74.7 °F 54.3 °F 1016.7 hPa 1.7 523 W/m²  WSW 2 mph   
10:25 75.6 °F 53.9 °F 1016.9 hPa 1.8 533 W/m²  WSW 4 mph   
10:30 76.5 °F 54.2 °F 1016.9 hPa 1.9 542 W/m²  WSW 3 mph   
10:35 77.2 °F 54.2 °F 1017.0 hPa 2.0 550 W/m²  SW 5 mph   
10:40 77.9 °F 54.8 °F 1017.0 hPa 2.2 556 W/m²  SW 5 mph   
10:45 78.4 °F 55.3 °F 1017.0 hPa 2.2 566 W/m²  WSW 2 mph   
10:50 78.7 °F 54.3 °F 1017.0 hPa 2.3 576 W/m²  SW 3 mph   
10:55 78.9 °F 54.5 °F 1017.0 hPa 2.4 586 W/m²  SW 4 mph   
11:00 79.4 °F 54.9 °F 1017.0 hPa 2.6 600 W/m²  SW 4 mph   
11:05 79.8 °F 54.6 °F 1017.0 hPa 2.7 604 W/m²  SW 7 mph   
11:10 80.3 °F 55.7 °F 1017.0 hPa 2.8 614 W/m²  W 6 mph   
11:15 80.8 °F 54.9 °F 1016.8 hPa 3.0 622 W/m²  SW 6 mph   
11:20 81.2 °F 53.2 °F 1016.9 hPa 3.1 633 W/m²  W 5 mph   
11:25 81.4 °F 52.6 °F 1016.9 hPa 3.1 640 W/m²  W 6 mph   
11:30 81.3 °F 51.8 °F 1016.9 hPa 3.2 643 W/m²  WSW 6 mph   
11:35 81.4 °F 50.3 °F 1016.8 hPa 3.3 650 W/m²  SW 8 mph   
11:40 81.3 °F 50.2 °F 1016.9 hPa 3.4 655 W/m²  WSW 6 mph   
11:45 81.2 °F 49.3 °F 1016.9 hPa 3.4 659 W/m²  W 7 mph   
11:50 81.5 °F 51.2 °F 1016.9 hPa 3.5 663 W/m²  WSW 6 mph   
11:55 81.0 °F 50.7 °F 1016.9 hPa 3.5 667 W/m²  W 7 mph   
12:00 81.0 °F 51.5 °F 1016.9 hPa 3.7 672 W/m²  WSW 8 mph   
12:05 81.0 °F 51.5 °F 1016.8 hPa 3.6 739 W/m²  W 7 mph   
12:10 81.0 °F 50.0 °F 1016.8 hPa 2.3 482 W/m²  W 7 mph   
12:15 80.5 °F 51.8 °F 1016.9 hPa 2.8 501 W/m²  WSW 8 mph   
12:20 80.3 °F 50.9 °F 1016.8 hPa 2.4 457 W/m²  WSW 4 mph   
12:25 81.1 °F 52.3 °F 1016.8 hPa 2.1 406 W/m²  WSW 6 mph   
12:30 80.7 °F 52.7 °F 1016.7 hPa 2.6 308 W/m²  WSW 7 mph   
12:35 81.2 °F 53.2 °F 1016.6 hPa 4.2 299 W/m²  WSW 9 mph   
12:40 81.2 °F 53.9 °F 1016.6 hPa 3.0 833 W/m²  W 6 mph   
12:45 81.8 °F 53.7 °F 1016.6 hPa 4.0 812 W/m²  W 7 mph   
12:50 82.2 °F 53.3 °F 1016.5 hPa 3.9 725 W/m²  WSW 6 mph   
12:55 82.4 °F 53.5 °F 1016.3 hPa 3.3 743 W/m²  W 8 mph   
13:00 82.0 °F 53.1 °F 1016.3 hPa 3.9 615 W/m²  SW 8 mph   
13:05 82.5 °F 53.6 °F 1016.2 hPa 4.0 751 W/m²  W 7 mph   
13:10 82.3 °F 51.9 °F 1016.2 hPa 3.9 671 W/m²  WSW 6 mph   
13:15 82.5 °F 52.8 °F 1016.1 hPa 2.4 720 W/m²  SW 6 mph   
13:20 83.1 °F 52.6 °F 1016.2 hPa 2.7 530 W/m²  WSW 6 mph   
13:25 82.7 °F 51.4 °F 1016.0 hPa 2.6 434 W/m²  WNW 6 mph   
13:30 82.3 °F 51.1 °F 1016.0 hPa 2.5 378 W/m²  WSW 5 mph   
13:35 82.5 °F 52.1 °F 1015.9 hPa 3.7 787 W/m²  WSW 5 mph   
13:40 83.4 °F 52.1 °F 1015.8 hPa 3.8 827 W/m²  W 7 mph   
13:45 83.8 °F 50.8 °F 1015.8 hPa 3.7 848 W/m²  WSW 7 mph   
13:50 83.6 °F 50.6 °F 1015.8 hPa 3.4 573 W/m²  WSW 6 mph   
13:55 83.8 °F 52.4 °F 1015.7 hPa 3.3 672 W/m²  WSW 6 mph   
14:00 84.0 °F 50.9 °F 1015.7 hPa 3.0 662 W/m²  WSW 5 mph   
14:05 83.7 °F 51.5 °F 1015.7 hPa 3.0 612 W/m²  WSW 10 mph   
14:10 83.8 °F 49.9 °F 1015.6 hPa 2.7 632 W/m²  WSW 7 mph   
14:15 84.0 °F 50.1 °F 1015.6 hPa 2.6 604 W/m²  WSW 10 mph   
14:20 84.1 °F 50.2 °F 1015.5 hPa 2.5 614 W/m²  SW 9 mph   
14:25 84.4 °F 51.3 °F 1015.6 hPa 2.3 575 W/m²  WSW 6 mph   
14:30 83.6 °F 49.7 °F 1015.5 hPa 1.9 340 W/m²  WSW 7 mph   
14:35 83.6 °F 49.7 °F 1015.4 hPa 2.3 563 W/m²  WSW 6 mph   
14:40 84.4 °F 50.4 °F 1015.5 hPa 2.0 571 W/m²  WSW 8 mph   
14:45 84.5 °F 49.6 °F 1015.5 hPa 1.9 533 W/m²  WSW 7 mph   
14:50 84.2 °F 50.3 °F 1015.5 hPa 1.8 542 W/m²  WSW 8 mph   
14:55 84.5 °F 50.5 °F 1015.4 hPa 1.7 535 W/m²  WSW 4 mph   
15:00 84.5 °F 49.6 °F 1015.4 hPa 1.6 521 W/m²  WSW 8 mph   
15:05 84.5 °F 53.0 °F 1015.4 hPa 1.5 522 W/m²  WSW 8 mph   
15:10 84.7 °F 51.5 °F 1015.4 hPa 1.4 533 W/m²  WSW 10 mph   
15:15 84.4 °F 50.4 °F 1015.4 hPa 1.0 550 W/m²  SW 10 mph   
15:20 84.0 °F 50.1 °F 1015.4 hPa 1.1 392 W/m²  SW 8 mph   
15:25 84.1 °F 50.2 °F 1015.3 hPa 1.2 455 W/m²  SW 9 mph   
15:30 84.5 °F 50.5 °F 1015.3 hPa 1.0 516 W/m²  WSW 10 mph   
15:35 84.6 °F 50.6 °F 1015.3 hPa 0.9 479 W/m²  W 8 mph   
15:40 83.8 °F 51.6 °F 1015.3 hPa 0.8 436 W/m²  WSW 11 mph   
15:45 83.4 °F 52.1 °F 1015.3 hPa 0.6 407 W/m²  WSW 11 mph   
15:50 83.3 °F 51.2 °F 1015.2 hPa 0.5 393 W/m²  SW 10 mph   
15:55 83.2 °F 51.9 °F 1015.2 hPa 378 W/m²  WSW 9 mph   
16:00 82.8 °F 51.5 °F 1015.1 hPa 365 W/m²  WSW 10 mph   
16:05 82.8 °F 51.5 °F 1015.1 hPa 350 W/m²  W 8 mph   
16:10 82.4 °F 51.2 °F 1015.1 hPa 335 W/m²  WSW 9 mph   
16:15 82.5 °F 51.3 °F 1015.1 hPa 321 W/m²  WSW 8 mph   
16:20 82.0 °F 51.6 °F 1015.0 hPa 305 W/m²  WSW 8 mph   
16:25 81.4 °F 51.9 °F 1015.0 hPa 291 W/m²  WNW 8 mph   
16:30 81.1 °F 51.6 °F 1015.0 hPa 274 W/m²  W 7 mph   
16:35 80.8 °F 52.1 °F 1015.0 hPa 245 W/m²  W 7 mph   
16:40 80.9 °F 52.2 °F 1015.0 hPa 191 W/m²  W 7 mph   
16:45 81.0 °F 52.2 °F 1015.0 hPa 41 W/m²  W 7 mph   
16:50 80.9 °F 52.9 °F 1015.0 hPa 39 W/m²  W 8 mph   
16:55 80.6 °F 52.6 °F 1015.0 hPa 37 W/m²  W 8 mph   
17:00 80.4 °F 53.1 °F 1015.0 hPa 35 W/m²  WSW 9 mph   
17:05 80.1 °F 53.6 °F 1014.9 hPa 33 W/m²  W 5 mph   
17:10 79.8 °F 54.0 °F 1014.9 hPa 32 W/m²  WSW 4 mph   
17:15 79.5 °F 54.4 °F 1014.7 hPa 29 W/m²  WSW 8 mph   
17:20 79.1 °F 54.7 °F 1014.7 hPa 26 W/m²  WSW 6 mph   
17:25 78.7 °F 54.3 °F 1014.7 hPa 24 W/m²  WSW 7 mph   
17:30 78.4 °F 54.0 °F 1014.7 hPa 22 W/m²  W 6 mph   
17:35 78.0 °F 53.7 °F 1014.7 hPa 20 W/m²  W 5 mph   
17:40 77.6 °F 53.9 °F 1014.7 hPa 15 W/m²  W 5 mph   
17:45 77.3 °F 53.7 °F 1014.8 hPa 12 W/m²  WSW 5 mph   
17:50 77.0 °F 54.0 °F 1014.7 hPa 11 W/m²  WSW 3 mph   
17:55 76.6 °F 53.6 °F 1014.8 hPa 8 W/m²  SW 3 mph   
18:00 76.2 °F 53.3 °F 1014.8 hPa 6 W/m²  W 4 mph   
18:05 75.8 °F 52.3 °F 1014.8 hPa 2 W/m²  W 3 mph   
18:10 75.5 °F 52.7 °F 1014.8 hPa  W 2 mph   
18:15 75.2 °F 52.4 °F 1014.8 hPa  W 1 mph   
18:20 74.9 °F 52.1 °F 1014.9 hPa  W 2 mph   
18:25 74.8 °F 54.9 °F 1014.9 hPa  WSW 1 mph   
18:30 74.6 °F 55.8 °F 1014.9 hPa  WSW 1 mph   
18:35 74.2 °F 55.4 °F 1014.9 hPa  WSW 1 mph   
18:40 73.8 °F 55.1 °F 1014.9 hPa  W 1 mph   
18:45 73.0 °F 53.8 °F 1014.9 hPa  W 1 mph   
18:50 72.3 °F 52.6 °F 1015.0 hPa  W 1 mph   
18:55 71.7 °F 52.6 °F 1015.1 hPa  W 1 mph   
19:00 71.1 °F 51.5 °F 1015.2 hPa  NNW 1 mph   
19:05 70.6 °F 51.0 °F 1015.2 hPa  NNW 1 mph   
19:10 70.2 °F 51.2 °F 1015.2 hPa  NNW 1 mph   
19:15 69.9 °F 50.9 °F 1015.2 hPa  W 1 mph   
19:20 69.6 °F 50.7 °F 1015.2 hPa  W 1 mph   
19:25 69.4 °F 51.0 °F 1015.3 hPa  W 1 mph   
19:30 69.2 °F 50.8 °F 1015.3 hPa  W 1 mph   
19:35 69.0 °F 51.1 °F 1015.4 hPa  Calm    
19:40 68.8 °F 51.0 °F 1015.4 hPa  Calm    
19:45 68.6 °F 50.8 °F 1015.6 hPa  Calm    
19:50 68.4 °F 50.6 °F 1015.6 hPa  Calm    
19:55 68.2 °F 50.4 °F 1015.6 hPa  Calm    
20:00 68.0 °F 50.7 °F 1015.6 hPa  Calm    
20:05 67.9 °F 51.6 °F 1015.6 hPa  Calm    
20:10 67.6 °F 51.8 °F 1015.5 hPa  Calm    
20:15 67.3 °F 51.5 °F 1015.7 hPa  Calm    
20:20 67.1 °F 51.8 °F 1015.7 hPa  Calm    
20:25 66.9 °F 51.2 °F 1015.7 hPa  Calm    
20:30 66.7 °F 51.4 °F 1015.6 hPa  Calm    
20:35 66.5 °F 51.3 °F 1015.7 hPa  Calm    
20:40 66.4 °F 51.6 °F 1015.6 hPa  Calm    
20:45 66.3 °F 51.5 °F 1015.7 hPa  Calm    
20:50 66.1 °F 51.3 °F 1015.8 hPa  Calm    
20:55 66.0 °F 51.7 °F 1015.7 hPa  Calm    
21:00 65.9 °F 52.1 °F 1015.7 hPa  Calm    
21:05 65.8 °F 52.0 °F 1015.9 hPa  Calm    
21:10 65.6 °F 51.8 °F 1015.9 hPa  Calm    
21:15 65.5 °F 51.7 °F 1015.9 hPa  Calm    
21:20 65.4 °F 52.0 °F 1015.8 hPa  Calm